Location: Bílinka
(49.3579°N, 14.3767°E)
Time: 01:24:37
(UTC+00:00)

Cosmos 1975 Rocket - Pass Details

Date: 28 January 2023
Orbit: 602 x 632 km, 82.5° (Epoch: 31 March)

Event Time Altitude Azimuth Distance (km) Brightness Sun altitude
Rises 16:32:30 0° 180° (S) 2,915 6.8 -6.9°
Reaches altitude 10° 16:34:44 10° 178° (S) 2,011 5.9 -7.3°
Maximum altitude 16:39:10 66° 96° (E) 691 3.1 -8.0°
Drops below altitude 10° 16:43:36 10° 15° (NNE) 2,017 5.4 -8.7°
Sets 16:45:51 0° 13° (NNE) 2,924 6.2 -9.0°
